GFSSE_con_lsi_057.txt.gz
Lid_Strength_Index
0 -1 -2 -2 -1 -1 -2 -1 -2 -2 -2 -2 -2 -2 -2 -2 -2 -2 -2 -2 -2 -2 -2 -2 -2 -2 -2 -2 -2 -2 -2 -2 -2 -2 -2 -2 -2 -2 -2 -2 -2 -1 -2
-0 -1 -1 -2 -2 -2 -2 -2 -2 -2 -2 -2 -2 -2 -2 -2 -2 -2 -2 -2 -2 -2 -2 -2 -2 -2 -2 -2 -2 -2 -1 -1 -2 -2 -2 -2 -2 -2 -2 -2 -2 -2 -2
-0 -1 -1 -2 -2 -2 -2 -2 -2 -2 -2 -2 -2 -2 -2 -2 -2 -2 -1 -1 -1 -1 -2 -2 -2 -2 -2 -2 -2 -2 -2 -2 -2 -2 -2 -1 -1 -2 -3 -2 -2 -2 -2
-1 -1 -1 -1 -2 -2 -2 -2 -2 -2 -2 -2 -2 -2 -2 -2 -2 -2 -1 -1 -1 -2 -2 -2 -2 -2 -2 -2 -2 -2 -2 -2 -2 -2 -2 -1 -1 -3 -3 -3 -3 -3 -2
-1 -1 -1 -1 -1 -2 -2 -2 -2 -2 -2 -2 -2 -2 -2 -2 -2 -2 -2 -1 -2 -2 -3 -2 -2 -2 -2 -2 -2 -2 -2 -2 -1 -1 -1 -2 -2 -2 -3 -3 -2 -2 -3
-1 -1 -1 -1 -2 -2 -2 -2 -1 -2 -2 -2 -2 -2 -2 -2 -2 -2 -2 -2 -2 -2 -3 -3 -3 -3 -2 -1 -1 -2 -2 -1 -1 -1 -1 -2 -2 -3 -3 -3 -3 -3 -3
-0 -1 -1 -1 -1 -2 -2 -2 -2 -2 -2 -2 -2 -2 -2 -2 -2 -2 -2 -2 -2 -2 -2 -2 -2 -1 -1 -0 -1 -1 -0 0 0 -1 -1 -2 -2 -3 -3 -3 -3 -2 -2
-0 -1 -1 0 -1 -1 -2 -2 -2 -2 -2 -2 -2 -2 -2 -2 -2 -2 -2 -2 -3 -2 -1 -1 -1 -1 0 1 0 0 1 2 1 1 -0 -1 -2 -2 -3 -3 -2 -2 -2
-0 -1 -1 -1 -0 0 -0 -1 -1 -1 -2 -2 -2 -2 -2 -2 -2 -2 -2 -2 -2 -2 -2 -1 -0 0 1 1 1 1 1 2 1 0 -0 -1 -2 -2 -3 -3 -3 -3 -3
3 -0 -1 -1 -1 -1 -1 1 0 -1 -1 -1 -1 -1 -1 -1 -2 -2 -1 -2 -2 -2 -1 -0 0 1 1 2 2 2 2 1 0 -0 -1 -2 -2 -3 -3 -2 -2 -2 -2
5 5 1 -0 -1 -1 -1 0 1 1 0 0 0 1 0 -1 -1 -1 -1 -2 -2 -1 -1 0 1 2 2 3 2 3 2 2 0 -1 -1 -2 -2 -3 -3 -3 -2 -2 -3
6 6 5 5 3 0 -1 -0 -1 -1 -1 -1 -1 -1 -1 -1 -1 -1 0 -0 -1 -1 -0 1 2 3 4 5 4 3 3 3 2 1 1 -1 -2 -2 -2 -2 -2 -2 -2
6 7 7 6 6 4 2 -1 -0 -0 -1 -1 -1 -1 -1 -1 -1 -1 -0 1 1 2 2 2 3 3 4 5 5 4 4 5 4 3 3 0 -0 -1 -1 -1 -1 -1 -1
8 7 7 7 6 5 5 3 -0 0 -0 -1 -0 -0 -0 0 -0 0 0 1 1 2 2 2 3 4 5 5 6 7 7 7 6 6 4 2 1 0 -0 -0 -0 -0 -0
9 8 8 7 6 5 5 2 1 -0 1 -0 -1 0 0 1 0 0 1 1 2 2 2 3 3 4 6 7 8 9 9 9 9 8 6 5 4 2 1 1 1 1 1
9 8 8 7 6 5 5 2 1 0 2 2 1 1 1 1 1 1 2 3 3 2 3 3 4 6 8 9 10 11 11 11 12 11 10 8 6 5 3 2 2 1 2
7 6 6 5 4 4 3 2 2 1 2 4 3 2 1 1 2 3 3 4 4 4 6 5 7 8 9 10 12 12 12 12 13 13 12 12 10 6 5 4 4 4 3
8 7 6 5 4 3 2 2 3 2 2 4 4 3 3 2 3 4 4 4 5 6 6 6 8 8 10 11 13 13 13 13 13 13 13 13 12 11 8 7 7 6 5
8 7 7 5 5 4 4 4 4 4 4 4 4 4 5 4 5 4 5 7 7 7 7 8 8 9 12 13 14 14 14 14 14 14 14 14 13 13 13 11 10 9 7
8 7 7 6 5 5 6 6 7 7 7 6 6 7 7 7 6 6 8 8 9 9 9 8 9 10 12 13 15 15 15 14 14 14 14 14 14 14 14 14 14 13 9
9 8 8 7 6 6 7 7 7 7 8 9 9 9 9 8 8 8 9 11 10 9 8 9 10 12 14 14 14 15 15 15 15 15 14 14 14 14 15 15 15 15 14
9 8 8 7 7 6 5 8 8 9 10 10 11 11 10 9 9 10 12 12 10 10 10 10 11 13 13 13 12 12 14 14 15 16 15 15 15 14 15 16 16 16 15
10 9 8 7 7 7 6 11 11 11 11 12 12 12 12 11 11 11 13 12 11 9 10 10 11 12 14 15 13 10 13 12 14 15 16 16 16 15 15 16 16 16 16
10 9 8 7 8 7 9 9 9 9 11 11 11 12 13 12 13 13 14 13 12 10 11 11 12 13 13 14 15 16 15 14 16 18 16 17 16 16 16 16 17 17 16
10 9 8 8 8 8 9 8 9 10 11 11 12 13 14 14 14 15 15 14 13 12 12 13 14 14 14 14 15 16 16 16 16 16 18 18 17 16 16 16 16 17 17
11 9 9 9 9 9 9 9 9 9 13 13 14 15 15 15 16 16 16 15 15 15 14 15 15 14 15 15 15 15 16 16 17 17 18 18 18 17 16 16 16 16 16

GFSSE_con_lsi_060.txt.gz
Lid_Strength_Index
0 -1 -2 -2 -1 -1 -2 -1 -2 -2 -2 -2 -2 -2 -2 -2 -2 -2 -2 -2 -2 -2 -2 -2 -2 -2 -2 -2 -2 -2 -2 -2 -2 -2 -2 -2 -2 -2 -2 -2 -2 -1 -2
-1 -1 -2 -2 -2 -1 -1 -1 -2 -2 -2 -2 -2 -2 -2 -2 -2 -2 -2 -2 -2 -2 -2 -2 -2 -2 -2 -2 -1 -1 -1 -2 -2 -2 -3 -3 -2 -2 -2 -2 -2 -1 -2
-1 -1 -1 -2 -1 -1 -2 -2 -2 -2 -2 -2 -2 -2 -1 -1 -1 -1 -1 -1 -2 -2 -2 -2 -2 -2 -2 -1 -2 -2 -2 -2 -2 -3 -3 -2 -2 -2 -3 -2 -2 -2 -2
-1 -1 -1 -1 -2 -1 -2 -2 -2 -2 -2 -2 -2 -2 -2 -2 -1 -1 -2 -2 -2 -2 -2 -2 -2 -2 -2 -2 -2 -2 -2 -2 -2 -3 -2 -2 -2 -3 -3 -3 -3 -3 -2
-1 -1 -1 -1 -2 -2 -2 -2 -2 -2 -2 -2 -2 -2 -2 -2 -2 -2 -2 -2 -2 -2 -2 -2 -3 -3 -2 -2 -2 -2 -2 -2 -3 -2 -2 -2 -2 -2 -3 -3 -2 -2 -3
-1 -1 -1 -1 -2 -2 -2 -2 -2 -2 -2 -2 -2 -2 -2 -2 -2 -3 -2 -3 -2 -2 -2 -3 -2 -2 -2 -2 -2 -2 -2 -2 -2 -2 -2 -2 -2 -2 -3 -2 -2 -2 -2
-1 -1 -1 -1 -2 -2 -2 -2 -2 -2 -2 -2 -2 -2 -2 -2 -2 -2 -3 -2 -2 -3 -3 -2 -1 -1 -1 -2 -2 -2 -2 -3 -2 -2 -2 -1 -2 -2 -3 -2 -2 -2 -2
-1 -1 -1 0 -0 -1 -2 -1 -2 -2 -2 -2 -2 -2 -2 -2 -2 -2 -2 -2 -2 -2 -2 -1 -1 -0 -1 -1 -1 -1 -1 -1 -0 -1 -1 -1 -3 -3 -3 -3 -3 -3 -3
-1 -1 -1 -1 -1 0 -1 -1 -1 -1 -2 -2 -2 -2 -2 -2 -2 -2 -2 -2 -2 -2 -1 -1 -0 0 -0 -1 -1 -0 -1 -1 -1 -1 -1 -1 -3 -3 -3 -2 -2 -2 -2
-1 -1 -1 -1 -1 -1 -2 1 0 -1 -1 -1 -1 -1 -1 -1 -2 -2 -2 -2 -2 -1 -1 -0 0 0 0 -0 0 0 -1 -1 -1 -2 -2 -1 -2 -3 -3 -3 -3 -2 -3
0 -0 -1 -1 -1 -1 -1 -0 1 1 0 0 -0 1 -0 -2 -2 -1 -1 -2 -1 -1 -0 0 1 1 1 1 1 0 -0 -0 -0 -1 -1 -2 -2 -3 -3 -3 -3 -3 -2
1 0 -1 -1 -1 -1 -1 -1 -2 -2 -2 -2 -2 -2 -2 -2 -2 -1 -0 -0 -0 -0 1 1 2 3 2 1 1 1 0 1 1 0 -0 -1 -2 -2 -2 -2 -1 -1 -1
1 0 -0 -1 -1 -1 -1 -1 -1 -2 -2 -2 -2 -2 -1 -1 -2 -2 -1 -0 0 2 1 2 2 2 2 2 2 2 2 2 2 2 2 0 -1 -1 -1 -1 -0 -1 -0
1 1 0 0 0 -0 1 -1 -1 -1 -1 -1 -2 -1 -1 -1 -1 -1 -1 -0 1 1 1 1 2 3 3 3 3 4 3 4 3 3 3 2 1 0 -0 -0 0 0 1
1 1 1 2 1 1 0 0 -0 -1 -1 -1 -1 -1 -1 -1 -1 -0 0 1 1 1 1 2 4 4 5 5 5 5 6 6 5 5 5 4 2 1 1 1 1 1 2
1 1 2 3 3 2 1 0 -1 -1 -1 -1 -1 -1 -1 -1 -0 0 1 2 2 2 2 3 5 7 7 7 8 8 9 9 8 7 6 5 3 3 2 2 2 2 2
2 2 3 4 4 3 2 1 -1 -1 -1 -1 0 -1 -1 -1 -0 1 1 2 3 4 4 5 7 8 8 8 9 10 10 10 10 10 9 7 6 6 5 4 4 3 3
1 4 4 5 4 3 3 2 -0 -1 -1 -1 -0 1 0 1 1 1 1 3 5 4 5 6 8 9 8 9 10 10 10 11 11 11 10 10 9 9 7 6 5 5 4
3 4 3 3 3 2 1 1 -0 1 -0 -0 1 2 1 2 2 2 3 4 4 4 4 6 8 8 9 10 11 11 11 11 11 11 11 11 11 11 10 9 8 7 6
4 4 4 3 3 2 1 1 1 2 2 1 1 2 3 2 2 3 5 6 6 4 5 7 8 8 9 11 13 13 12 12 11 12 12 12 12 12 12 12 11 10 8
5 5 5 4 3 2 2 3 3 4 5 4 3 4 4 4 5 6 6 8 8 7 5 7 8 10 11 12 13 13 13 13 13 12 12 12 12 13 13 13 13 12 12
6 5 5 5 4 3 3 2 3 3 5 4 5 6 5 6 6 6 8 7 8 7 7 8 8 10 11 11 11 12 15 14 14 13 12 13 13 13 13 14 14 14 13
6 6 6 5 4 4 3 3 6 8 8 8 7 8 8 8 9 8 9 9 8 7 7 7 8 9 12 11 9 9 12 12 14 14 14 13 13 13 14 14 14 14 14
6 5 5 5 5 4 3 5 5 6 6 6 6 8 9 8 9 10 11 11 9 7 7 7 8 8 9 11 11 11 11 10 12 16 14 14 14 14 13 14 15 15 15
6 6 6 6 5 5 4 4 4 4 4 6 7 10 10 10 10 11 12 11 9 8 6 7 8 8 9 9 10 12 13 13 12 13 16 16 15 14 14 14 15 15 15
7 7 6 6 6 5 5 4 4 4 4 6 9 10 11 11 12 13 14 12 11 9 8 8 8 9 9 9 10 12 13 13 14 14 15 15 15 15 14 14 15 15 15

GFSSE_con_lsi_063.txt.gz
Lid_Strength_Index
0 -1 -2 -1 -1 -1 -2 -2 -2 -2 -2 -2 -2 -2 -2 -2 -2 -2 -2 -2 -2 -2 -2 -2 -2 -2 -2 -2 -2 -2 -2 -2 -2 -2 -2 -2 -2 -2 -2 -2 -2 -1 -2
-1 -1 -2 -1 -1 -2 -2 -2 -2 -2 -2 -2 -2 -2 -2 -2 -2 -2 -2 -2 -2 -2 -2 -2 -2 -2 -1 -1 -1 -1 -1 -2 -2 -3 -3 -3 -3 -2 -2 -2 -2 -1 -2
-0 -1 -1 -2 -1 -1 -1 -2 -2 -2 -2 -2 -2 -1 -1 -1 -1 -2 -2 -2 -2 -2 -2 -2 -2 -2 -2 -1 -1 -2 -2 -2 -3 -3 -3 -1 -1 -2 -3 -2 -2 -2 -2
-1 -1 -1 -1 -2 -1 -1 -2 -2 -2 -2 -2 -2 -2 -1 -1 -1 -2 -2 -2 -2 -2 -2 -2 -2 -2 -2 -2 -2 -2 -2 -2 -3 -3 -1 -1 -1 -3 -3 -3 -3 -3 -3
-1 -1 -1 -1 -1 -1 -1 -2 -2 -2 -2 -2 -2 -2 -2 -2 -2 -2 -2 -2 -2 -2 -2 -2 -2 -2 -2 -2 -2 -2 -2 -3 -3 -2 -1 -1 -1 -2 -3 -3 -2 -2 -2
-1 -1 -1 -1 -1 -1 -1 -2 -2 -2 -2 -2 -2 -2 -2 -2 -2 -2 -2 -2 -2 -2 -2 -3 -2 -2 -2 -2 -2 -2 -2 -3 -2 -1 -1 -1 -1 -2 -2 -2 -2 -2 -2
-0 -1 -1 -1 -1 -2 -1 -2 -2 -2 -2 -2 -2 -2 -2 -2 -2 -2 -2 -2 -2 -2 -2 -2 -2 -2 -2 -2 -2 -2 -3 -3 -1 -1 -1 -1 -1 -2 -3 -3 -3 -3 -3
-0 -1 -1 0 -1 -1 -1 -1 -2 -2 -2 -2 -2 -2 -2 -2 -2 -2 -2 -2 -2 -2 -1 -1 -2 -2 -2 -2 -2 -2 -3 -2 -0 -0 -1 -1 -2 -2 -2 -2 -2 -3 -2
-1 -1 -1 -1 -1 0 -0 -1 -1 -1 -2 -2 -2 -2 -2 -2 -2 -2 -3 -2 -2 -1 -1 -1 -1 -2 -2 -2 -2 -2 -2 -2 -1 -1 -1 -1 -2 -3 -3 -3 -3 -3 -2
-0 -0 -1 -1 -1 -1 -1 1 0 -1 -1 -1 -1 -1 -1 -1 -2 -2 -2 -2 -2 -1 -1 -0 -1 -1 -1 -1 -1 -1 -1 -1 -1 -1 -1 -1 -2 -3 -3 -3 -2 -2 -1
1 -0 -1 -0 -1 -1 -1 -0 1 1 0 0 -0 0 -0 -1 -1 -1 -1 -2 -1 -1 -0 -0 -0 -0 0 0 -0 -1 -0 -0 -1 -1 -1 -2 -2 -2 -2 -2 -1 -1 -1
1 0 0 -0 -1 -1 -1 -1 -1 -1 -1 -1 -1 -1 -1 -1 -1 -1 0 0 -0 -0 0 0 0 0 0 1 1 -0 0 1 1 1 -0 -1 -1 -1 -1 -1 -1 -1 0
1 1 -0 -0 -1 -1 -1 -1 -1 -1 -1 -1 -1 -1 -1 -0 -1 -1 0 0 1 2 3 2 2 1 1 1 1 1 1 1 2 2 2 -0 -0 -1 -1 -0 -0 0 1
1 1 0 -0 -0 -1 -1 -1 -1 -1 -1 -1 -1 -1 -1 -1 -1 -1 -0 -0 -0 -0 1 1 2 1 2 2 2 3 3 2 3 3 3 1 -0 -0 -0 0 1 1 1
1 1 0 -0 -0 -0 -1 -1 -1 -1 -1 -1 -1 -1 -1 -1 -0 -1 -1 0 1 0 1 2 2 3 4 4 4 4 4 4 4 4 3 2 1 1 1 1 1 1 2
1 1 0 0 -0 -1 -0 -1 -1 -1 -1 -1 -1 -1 -1 -1 -1 -0 1 1 1 1 2 3 4 6 5 6 7 7 7 6 6 5 4 5 3 3 2 2 2 2 2
1 1 1 0 -0 -0 -0 -0 -1 -1 -1 -1 -1 -1 -1 -1 -1 0 1 2 2 3 4 6 6 7 7 7 9 9 9 9 8 7 6 6 6 5 4 3 3 3 3
1 1 0 0 0 -0 -0 -0 -0 -1 -1 -1 -1 -1 -1 -0 -0 0 2 2 2 4 6 7 8 7 8 8 9 10 10 10 10 10 9 8 8 8 6 5 5 4 4
1 1 1 0 1 1 1 -0 -0 -1 -0 -1 -1 -1 -1 -1 -0 1 2 3 4 5 6 7 8 7 9 9 10 10 11 11 11 11 11 11 10 9 9 8 7 6 6
1 1 1 0 1 1 1 0 0 -0 0 -0 -0 -0 1 1 0 2 2 4 4 5 5 6 7 8 9 9 11 12 12 11 11 12 12 12 12 12 11 11 10 9 8
1 2 1 1 1 1 2 2 1 1 1 2 1 1 1 2 2 2 4 5 5 6 7 8 8 10 10 10 12 12 13 12 12 12 12 12 13 13 12 12 12 11 11
3 2 2 3 3 2 2 2 2 2 2 2 2 3 3 4 3 4 5 6 6 7 8 8 9 11 12 11 11 12 15 15 14 13 12 13 13 13 13 13 13 12 12
4 3 3 3 3 3 2 2 2 2 3 4 4 4 5 4 4 5 6 7 7 6 8 9 10 10 12 12 10 9 13 13 15 14 14 13 13 13 14 14 14 13 13
4 3 3 3 3 3 3 3 3 5 5 4 3 4 6 6 6 5 6 6 6 6 7 9 9 9 10 12 10 9 10 11 14 17 14 14 13 14 14 14 14 14 14
3 3 3 3 3 3 3 3 3 5 4 3 3 5 5 7 7 8 9 9 8 7 7 8 9 9 9 11 10 11 12 11 11 14 17 16 15 14 14 14 14 14 14
3 3 3 4 4 4 4 3 4 5 4 3 4 5 7 8 9 9 10 9 9 8 7 7 9 9 9 9 10 11 12 13 14 13 15 16 16 15 14 14 14 14 14

GFSSE_con_lsi_069.txt.gz
Lid_Strength_Index
1 -0 -2 -1 -1 -1 -2 -2 -2 -2 -2 -2 -2 -2 -2 -2 -2 -2 -2 -2 -2 -2 -2 -2 -2 -2 -2 -2 -2 -2 -2 -2 -2 -2 -2 -2 -2 -2 -2 -2 -2 -1 -3
-0 -1 -2 -2 -1 -1 -2 -2 -2 -2 -2 -2 -2 -2 -2 -2 -2 -2 -2 -2 -2 -2 -2 -2 -2 -2 -2 -2 -2 -2 -2 -2 -2 -2 -2 -3 -3 -3 -2 -3 -3 -1 -2
-0 -1 -1 -2 -2 -1 -2 -2 -2 -2 -2 -2 -2 -2 -2 -2 -2 -2 -2 -2 -2 -2 -2 -1 -1 -2 -2 -2 -3 -3 -3 -3 -3 -2 -2 -1 -1 -3 -3 -3 -3 -2 -2
-0 -1 -1 -1 -2 -2 -2 -2 -2 -2 -2 -1 -1 -1 -2 -2 -2 -2 -2 -3 -2 -2 -2 -2 -2 -2 -2 -2 -3 -3 -2 -2 -2 -2 -0 -1 -1 -2 -3 -2 -2 -2 -2
-0 -1 -1 -1 -2 -2 -2 -2 -2 -2 -2 -2 -2 -1 -2 -2 -2 -2 -2 -2 -2 -2 -2 -2 -2 -2 -2 -2 -2 -2 -2 -2 -2 -1 -1 -1 -1 -2 -3 -3 -2 -2 -2
-0 -0 -1 -1 -2 -2 -2 -2 -2 -2 -2 -2 -2 -2 -2 -2 -2 -2 -2 -2 -2 -2 -2 -2 -2 -2 -2 -2 -2 -2 -2 -1 -0 0 -1 -1 -1 -3 -3 -3 -3 -2 -2
0 -0 -1 -1 -1 -2 -2 -2 -2 -2 -2 -2 -2 -2 -2 -2 -2 -2 -2 -2 -2 -2 -2 -2 -2 -2 -2 -2 -3 -2 -2 -1 1 2 1 0 -1 -3 -3 -3 -2 -2 -2
0 -0 -1 0 -0 -1 -1 -2 -2 -2 -2 -2 -2 -2 -2 -2 -2 -2 -2 -2 -2 -2 -2 -2 -2 -2 -2 -2 -2 -2 -3 -2 -0 1 1 0 -2 -3 -3 -2 -1 -1 -1
-0 -0 -0 -0 -0 0 -0 -1 -1 -2 -2 -2 -2 -3 -3 -3 -3 -2 -3 -2 -2 -2 -2 -2 -2 -2 -2 -2 -2 -2 -2 -1 1 1 -1 -1 -2 -3 -2 -1 -1 -1 -0
1 0 -0 0 -0 -0 -0 1 0 -1 -1 -2 -2 -2 -2 -2 -2 -2 -2 -2 -2 -2 -2 -2 -2 -2 -2 -2 -1 -1 -1 -1 1 -0 -1 -1 -2 -2 -1 -1 -0 -0 0
1 0 0 0 0 -0 -0 1 1 0 -0 -0 -1 -0 0 -0 -0 -0 -1 -2 -2 -2 -2 -2 -2 -1 -1 -1 -1 -0 1 2 1 -0 -0 -2 -2 -1 -1 -0 -0 0 0
2 1 0 0 0 0 -1 0 0 -0 -0 -0 -0 0 0 1 1 0 0 -1 -1 -1 -2 -2 -1 -0 1 3 2 1 3 4 3 2 -0 -2 -1 -1 -0 -0 0 0 1
2 1 0 0 0 0 -0 -0 -0 -0 -0 0 0 1 1 1 1 2 2 2 2 1 1 0 2 3 3 3 3 2 3 4 4 3 1 -1 -1 -0 -0 0 0 1 1
2 2 1 0 0 -0 -0 -0 -0 -0 -0 0 0 0 1 2 2 3 3 4 4 4 4 4 4 4 4 5 4 4 4 4 5 5 3 0 -0 0 0 0 1 1 1
3 2 2 1 0 -0 0 -0 -0 -0 -0 -0 -0 -0 0 1 3 3 3 3 4 4 4 5 5 5 6 6 6 6 6 5 6 6 5 2 1 0 1 1 1 1 2
3 3 2 2 1 0 0 0 0 -0 -0 -0 -0 0 -0 0 2 3 3 3 3 2 3 4 5 6 8 8 8 8 8 7 7 8 8 7 2 1 1 1 2 2 2
3 2 2 2 2 1 1 1 0 0 0 0 0 0 0 0 2 3 2 2 2 3 4 6 7 8 9 10 11 10 9 9 9 9 9 9 9 4 2 2 2 3 3
3 3 2 1 2 2 1 1 1 1 0 0 0 0 0 0 1 2 3 3 2 4 6 7 8 9 10 11 13 13 13 12 11 11 11 10 10 10 6 4 4 3 3
3 2 2 2 2 2 3 3 2 2 2 1 0 0 0 1 1 2 3 3 4 6 7 8 8 10 11 12 13 14 15 15 14 14 13 12 11 11 11 7 6 5 5
3 2 2 2 2 2 3 3 3 3 2 1 1 1 1 1 1 2 3 4 5 7 8 8 9 10 11 12 13 14 15 15 15 15 15 14 13 13 13 12 12 10 6
3 3 2 3 3 2 3 4 4 3 3 3 3 1 1 1 1 2 3 4 5 7 8 8 9 11 12 12 14 14 15 15 16 16 16 16 16 15 15 15 14 14 12
3 3 2 2 3 2 2 2 2 4 5 4 5 4 0 1 1 1 2 4 5 7 8 9 9 11 12 12 13 14 17 17 17 16 17 16 17 16 16 16 16 15 15
5 3 2 2 3 3 3 5 6 6 7 6 6 6 4 2 1 1 3 4 5 5 8 8 9 11 12 12 13 13 17 17 18 17 17 17 18 18 18 17 16 15 15
6 4 2 2 3 3 4 5 4 4 4 4 3 4 6 5 2 2 3 4 4 5 6 8 9 10 11 13 13 12 13 15 17 19 17 18 18 18 19 18 18 17 16
7 7 5 5 4 4 4 4 4 4 4 8 7 7 7 7 5 4 3 4 4 4 5 7 9 8 10 11 11 12 13 15 16 18 19 19 19 18 18 18 18 18 17
8 8 7 6 6 6 4 5 5 4 7 7 7 6 6 7 6 5 5 4 4 4 5 6 8 9 10 10 10 11 11 14 15 17 19 19 19 19 19 19 18 18 18

GFSSE_con_lsi_072.txt.gz
Lid_Strength_Index
1 -0 -2 -1 -1 -2 -2 -2 -2 -2 -2 -1 -2 -2 -2 -2 -2 -2 -2 -2 -2 -2 -2 -2 -2 -2 -2 -2 -2 -2 -2 -2 -2 -2 -2 -2 -2 -2 -2 -3 -2 -1 -2
-0 -1 -1 -1 -1 -2 -2 -2 -2 -2 -2 -2 -2 -2 -2 -2 -2 -2 -2 -2 -2 -2 -2 -2 -2 -2 -2 -2 -2 -2 -2 -2 -2 -2 -2 -3 -3 -2 -2 -2 -3 -1 -2
-0 -1 -1 -2 -1 -1 -2 -2 -2 -2 -2 -2 -2 -2 -2 -2 -2 -2 -2 -2 -2 -1 -2 -2 -2 -2 -2 -2 -2 -2 -2 -2 -2 -2 -2 0 -1 -2 -2 -2 -2 -2 -2
-0 -1 -1 -1 -2 -2 -2 -2 -2 -2 -2 -2 -2 -2 -2 -2 -2 -2 -2 -2 -2 -2 -2 -2 -2 -2 -2 -3 -2 -2 -2 -2 -2 -2 -1 -1 -1 -2 -2 -2 -2 -2 -2
-0 -1 -1 -1 -2 -2 -2 -2 -2 -2 -2 -2 -2 -2 -2 -2 -2 -2 -2 -2 -2 -2 -2 -2 -2 -2 -2 -2 -2 -2 -2 -2 -2 -1 -0 -0 -0 -2 -3 -3 -2 -2 -2
-0 -0 -1 -1 -2 -2 -2 -2 -2 -2 -2 -2 -2 -2 -2 -2 -2 -2 -2 -2 -2 -2 -2 -2 -2 -2 -2 -2 -2 -2 -2 -1 -2 -0 -0 -1 -0 -2 -3 -3 -2 -2 -2
0 -0 -1 -1 -1 -2 -2 -2 -2 -2 -2 -2 -2 -2 -2 -2 -2 -2 -2 -2 -2 -2 -2 -2 -2 -2 -2 -2 -2 -2 -1 -1 2 2 1 -0 -1 -2 -3 -2 -2 -2 -2
0 -0 -1 0 -0 -1 -1 -2 -2 -2 -2 -2 -2 -2 -2 -2 -2 -2 -2 -2 -2 -2 -2 -2 -2 -2 -2 -2 -2 -2 -2 -2 -0 0 1 -1 -2 -2 -2 -2 -1 -1 -1
0 -0 -0 -0 -0 0 -0 -1 -2 -2 -2 -2 -2 -2 -2 -2 -2 -2 -2 -2 -2 -2 -2 -2 -2 -2 -2 -2 -2 -2 -1 -1 1 -0 -1 -1 -2 -2 -1 -1 -1 -1 -0
0 -0 -0 -0 -0 -0 -0 1 -0 -1 -1 -2 -2 -2 -1 -2 -2 -2 -2 -2 -2 -2 -2 -2 -2 -2 -2 -2 -1 -0 0 1 0 -1 -1 -1 -2 -1 -1 -1 -0 -0 0
1 0 -0 0 -0 -0 0 1 1 0 -0 -1 -1 -0 0 -0 0 1 -1 -2 -2 -2 -2 -2 -2 -2 -1 -1 -0 1 2 4 1 -0 -1 -1 -2 -1 -1 -0 0 0 0
2 1 0 0 0 -0 -0 0 0 -0 -0 -0 0 1 1 1 1 1 1 -1 -2 -2 -2 -2 -1 -0 2 3 2 2 4 4 2 1 -0 -1 -1 -1 -0 0 0 0 1
2 1 1 0 -0 0 0 1 0 0 0 0 1 1 2 2 2 2 2 1 1 1 1 2 3 3 3 4 4 3 4 3 3 3 -0 -1 -0 -1 -0 0 1 1 1
3 1 1 0 0 0 -0 0 -0 -0 0 1 1 1 2 3 4 4 3 3 3 3 3 4 4 5 5 4 5 5 4 5 4 4 3 0 -0 -0 -0 0 1 1 1
3 2 1 1 0 0 0 -0 -0 -0 0 1 1 1 2 3 3 4 4 4 3 4 4 5 5 6 6 6 6 6 5 6 6 5 5 2 0 0 0 0 1 1 2
3 2 1 1 1 0 0 0 -0 -0 0 0 1 0 2 2 3 4 4 5 4 3 4 4 6 7 8 7 7 7 7 8 7 7 7 5 1 0 1 1 1 2 2
3 2 2 1 1 1 1 0 0 -0 -0 -0 0 0 1 1 3 3 4 4 5 3 4 5 7 8 9 8 9 9 9 9 9 9 10 9 8 3 1 2 2 2 3
4 3 2 1 1 1 1 0 0 0 -0 -0 -0 1 0 1 2 3 3 4 3 4 5 6 8 9 9 9 10 10 11 11 11 11 10 10 10 9 6 3 3 3 3
4 3 2 2 2 2 1 1 1 1 0 0 0 0 1 1 1 3 3 4 4 5 6 7 8 9 11 12 13 13 12 12 13 12 11 11 10 11 11 7 6 4 4
3 2 2 2 2 2 2 1 2 1 1 0 0 0 1 1 2 2 2 3 5 6 7 8 9 10 10 12 13 14 15 14 15 14 13 12 12 12 12 12 12 10 5
4 3 2 2 2 2 3 3 2 3 2 2 1 1 0 1 1 2 3 4 6 7 7 9 10 12 12 12 13 14 14 14 15 14 15 14 14 14 14 14 14 14 12
4 3 2 2 1 2 1 2 2 2 5 3 3 2 1 1 1 2 3 4 5 6 8 9 10 12 12 12 13 14 16 15 15 16 16 16 16 16 16 15 15 15 15
8 4 2 2 2 1 1 3 7 7 8 7 7 3 2 1 1 2 2 4 5 6 7 9 10 11 12 13 12 13 16 16 18 16 16 16 16 17 17 17 16 15 15
9 6 3 2 2 2 2 3 3 3 4 4 3 4 6 4 1 1 2 3 4 5 6 7 8 10 10 13 13 12 13 15 16 18 16 17 16 16 18 17 17 16 16
9 9 6 4 3 2 3 3 3 3 3 6 8 6 7 6 4 3 2 3 3 4 5 6 7 8 9 10 12 11 12 15 14 16 18 19 17 16 16 17 16 17 16
9 9 8 6 4 4 4 4 4 4 6 9 9 8 7 7 5 6 5 3 4 4 4 5 6 8 8 9 10 9 12 13 15 16 17 17 17 17 16 17 17 17 17

GFSSE_con_lsi_075.txt.gz
Lid_Strength_Index
1 -0 -2 -1 -2 -2 -2 -2 -2 -2 -2 -2 -2 -2 -2 -2 -2 -2 -2 -2 -2 -2 -2 -2 -2 -2 -2 -2 -2 -2 -2 -2 -2 -2 -2 -2 -2 -2 -2 -2 -2 -1 -2
0 -0 -1 -1 -2 -2 -2 -2 -2 -2 -2 -2 -2 -1 -2 -2 -2 -2 -2 -1 -1 -2 -2 -2 -2 -2 -2 -1 -2 -2 -2 -2 -2 -2 -2 -2 -2 -2 -2 -2 -2 -1 -2
0 -0 -1 -1 -2 -2 -2 -2 -2 -2 -1 -2 -2 -1 -2 -2 -2 -2 -2 -1 -2 -2 -2 -2 -2 -2 -2 -2 -2 -2 -2 -2 -2 -2 -2 0 -1 -2 -2 -2 -2 -2 -2
-0 -0 -1 -1 -2 -2 -2 -2 -2 -2 -2 -2 -2 -1 -2 -2 -2 -2 -2 -1 -2 -2 -2 -2 -2 -2 -2 -2 -2 -2 -2 -2 -2 -1 -0 -1 -1 -2 -2 -2 -2 -2 -2
-0 -0 -1 -1 -2 -2 -2 -2 -2 -2 -2 -2 -2 -2 -2 -2 -2 -2 -2 -2 -2 -2 -2 -2 -2 -2 -2 -2 -2 -2 -2 -2 -2 -1 1 0 -0 -2 -3 -2 -2 -2 -2
-0 -0 -1 -1 -2 -2 -2 -2 -2 -2 -2 -2 -2 -2 -2 -2 -1 -2 -2 -2 -2 -2 -2 -2 -2 -2 -2 -2 -2 -2 -2 -2 -1 1 0 -1 -1 -2 -3 -2 -2 -2 -2
0 -0 -0 -1 -1 -2 -2 -2 -2 -2 -2 -2 -2 -2 -2 -2 -2 -2 -2 -2 -2 -2 -2 -2 -2 -2 -2 -2 -2 -2 -2 -1 1 1 -0 -1 -1 -2 -3 -3 -2 -2 -1
0 -0 -0 0 -0 -1 -1 -2 -2 -2 -2 -2 -2 -2 -2 -2 -2 -2 -2 -2 -2 -2 -2 -2 -2 -2 -2 -2 -2 -2 -2 -1 0 0 -0 -0 -2 -2 -2 -2 -1 -1 -1
-0 -0 0 -0 0 0 -0 -1 -2 -2 -2 -2 -2 -2 -2 -2 -2 -2 -2 -2 -2 -2 -2 -2 -2 -2 -2 -2 -2 -2 -1 -1 -0 -0 0 -0 -2 -2 -1 -1 -1 -1 -0
0 0 0 0 -0 -0 -0 1 -0 -1 -2 -2 -2 -1 -1 -2 -2 -2 -2 -2 -2 -2 -2 -2 -2 -2 -2 -2 -2 -1 -0 -0 -1 -1 -0 -1 -1 -2 -1 -1 -0 -0 0
1 0 -0 -0 -0 -0 0 1 1 -0 -1 -1 -1 -0 1 0 0 0 -1 -2 -2 -2 -2 -2 -2 -2 -2 -1 -0 1 2 1 -0 -0 -0 -1 -1 -1 -0 -0 0 0 1
2 1 0 -0 0 0 -0 1 0 0 0 0 0 1 1 1 2 1 0 -1 -2 -2 -2 -2 -2 -0 2 3 3 3 5 3 1 0 -1 -2 -1 -1 -0 0 1 1 1
2 1 1 0 0 -0 -0 0 1 1 1 1 1 2 2 2 2 2 1 1 1 1 1 2 2 3 3 4 4 4 4 3 2 1 -0 -1 -1 -1 -0 0 1 1 1
3 2 1 1 0 0 -0 0 -0 0 1 2 2 2 3 3 3 4 3 3 2 2 4 4 4 4 4 4 5 4 4 4 3 3 2 -0 -1 -1 -0 0 1 1 2
3 2 2 1 0 0 0 0 0 0 1 2 2 2 3 3 4 4 4 4 4 4 4 5 6 5 5 6 6 6 5 5 5 4 3 1 -0 -0 -0 1 2 2 2
3 3 2 1 0 0 0 0 0 1 -0 1 2 2 3 3 4 4 5 5 5 4 5 5 6 7 7 7 7 7 7 7 7 6 5 3 1 1 1 1 2 2 3
3 3 2 1 1 1 1 0 -0 0 1 0 2 2 2 3 4 4 4 4 5 4 5 5 7 7 8 8 8 7 8 9 9 9 8 8 6 2 1 1 2 2 3
4 3 3 1 1 1 1 1 0 -0 0 0 0 2 2 2 2 3 3 4 4 4 5 6 7 7 8 8 8 8 9 10 10 10 9 9 9 8 3 2 2 2 2
4 4 3 2 2 1 1 1 1 0 0 1 0 1 1 2 2 3 3 4 5 5 5 6 8 8 9 10 10 10 10 11 11 10 10 10 9 9 9 5 4 3 3
3 3 3 2 2 1 1 1 1 1 0 0 1 1 1 1 2 3 3 4 5 5 6 7 8 10 12 12 11 13 13 13 12 12 10 10 10 11 11 11 11 9 4
4 4 3 3 2 2 2 2 2 2 1 1 1 1 1 1 2 3 3 3 4 5 6 7 10 11 13 13 13 14 14 14 14 13 12 11 11 12 12 13 12 12 9
6 4 3 2 2 1 1 2 2 2 1 1 1 1 1 1 1 2 3 3 4 5 6 8 10 11 12 12 13 14 15 15 15 14 14 14 13 13 13 13 13 13 13
10 7 3 2 1 1 1 2 7 6 7 5 4 2 1 1 1 2 2 3 4 5 7 8 8 10 12 13 13 12 17 15 17 16 15 16 15 14 15 13 14 13 13
11 10 6 4 2 1 1 2 2 2 3 3 2 3 2 2 2 2 2 2 4 5 6 8 7 8 9 13 12 12 12 14 15 16 16 15 15 15 14 14 14 14 14
10 10 10 6 3 3 2 2 2 2 2 5 6 6 6 4 3 1 2 2 4 5 5 6 7 8 9 9 11 11 12 14 15 15 17 17 17 16 15 15 15 15 14
10 9 9 7 5 3 3 3 3 3 4 8 8 7 7 5 4 5 3 3 3 4 4 6 7 8 8 8 10 8 10 11 14 16 17 17 18 16 15 15 15 15 14

GFSSE_con_lsi_078.txt.gz
Lid_Strength_Index
2 0 -2 -2 -2 -2 -2 -2 -2 -2 -2 -2 -1 -2 -2 -2 -2 -2 -2 -2 -2 -2 -2 -2 -2 -2 -2 -2 -2 -2 -2 -2 -2 -2 -2 -2 -2 -2 -2 -2 -2 -1 -2
1 0 -1 -2 -2 -2 -2 -2 -2 -2 -2 -2 -1 -2 -2 -2 -2 -2 -2 -2 -2 -2 -2 -2 -2 -2 -2 -2 -2 -2 -2 -2 -2 -2 -2 -2 -2 -2 -2 -3 -3 -1 -2
0 -0 -1 -1 -2 -2 -2 -2 -2 -2 -2 -2 -1 -1 -2 -2 -2 -2 -1 -2 -3 -2 -2 -2 -2 -2 -2 -2 -2 -2 -2 -2 -2 -2 -2 -0 -1 -2 -2 -2 -2 -2 -2
-0 -0 -1 -1 -2 -2 -2 -2 -2 -2 -2 -2 -1 -2 -2 -2 -2 -1 -2 -2 -2 -2 -2 -2 -2 -2 -2 -2 -2 -2 -2 -2 -2 -1 -0 0 -1 -2 -2 -2 -2 -2 -2
0 -0 -0 -1 -2 -1 -2 -2 -2 -2 -2 -2 -1 -2 -2 -2 -2 -2 -2 -2 -2 -2 -2 -2 -2 -2 -2 -2 -2 -2 -2 -2 -2 -1 -0 -0 -1 -2 -3 -2 -2 -2 -2
0 -0 -1 -1 -2 -2 -2 -2 -2 -2 -2 -2 -2 -2 -2 -2 -2 -2 -2 -2 -2 -2 -2 -2 -2 -2 -2 -2 -2 -2 -2 -2 -1 0 -0 -1 -1 -2 -3 -2 -2 -2 -2
0 0 -0 -1 -1 -2 -2 -2 -2 -2 -2 -2 -2 -2 -2 -2 -2 -2 -2 -2 -2 -2 -2 -2 -2 -2 -2 -2 -2 -2 -2 -2 0 0 -1 -1 -1 -2 -3 -3 -2 -2 -1
0 -0 -0 0 -1 -1 -2 -2 -2 -2 -2 -2 -2 -2 -2 -2 -2 -2 -2 -2 -2 -2 -2 -2 -2 -2 -2 -2 -2 -2 -2 -1 -0 1 0 -1 -2 -2 -2 -2 -2 -1 -1
0 0 0 0 0 0 -1 -1 -2 -2 -2 -2 -2 -2 -2 -2 -2 -2 -2 -2 -2 -2 -2 -2 -2 -2 -2 -2 -2 -2 -2 -1 1 1 0 0 -2 -2 -2 -1 -1 -1 -0
0 0 0 0 0 0 0 0 -0 -1 -1 -2 -1 -1 -1 -2 -2 -2 -2 -2 -2 -2 -2 -2 -2 -2 -2 -2 -2 -1 -1 -1 1 0 1 -0 -2 -1 -1 -1 -0 -0 -0
1 0 0 -0 0 0 0 1 1 -0 -1 -1 -0 0 0 0 0 0 -1 -2 -2 -2 -2 -2 -2 -2 -2 -2 -1 0 0 0 0 0 0 -1 -1 -1 -1 -0 -0 -0 0
2 1 0 0 -0 0 -0 1 1 0 0 0 1 1 1 2 2 0 0 -1 -2 -1 -2 -2 -2 -1 2 3 3 2 3 1 0 0 -0 -2 -1 -1 -0 0 0 0 1
1 1 0 0 0 -0 0 1 1 1 1 1 1 2 2 2 2 1 1 1 1 1 1 1 2 3 3 4 4 4 3 2 1 1 -1 -2 -1 -1 -0 0 1 1 1
3 2 2 1 1 1 -0 -0 0 1 2 2 2 2 3 3 3 3 3 3 2 3 4 4 4 4 4 4 4 4 3 3 2 2 1 -0 -1 -0 -0 0 1 1 2
2 2 2 2 1 1 0 0 0 0 1 2 3 2 3 4 4 4 4 4 4 4 5 5 5 5 5 6 6 5 5 4 3 3 2 1 -0 -0 0 0 1 2 2
3 2 2 2 1 0 1 0 0 -0 1 2 3 3 3 4 4 4 4 5 5 5 5 6 6 6 6 6 7 7 7 6 6 5 3 3 0 -0 0 0 2 2 2
4 3 3 2 1 0 0 1 0 0 0 1 2 3 3 4 4 4 5 5 5 5 5 5 6 6 7 7 7 7 7 7 7 7 7 6 3 1 0 1 1 1 2
5 4 3 1 2 1 1 1 0 1 0 0 1 2 3 3 4 4 3 4 3 4 5 6 7 7 7 7 8 7 8 8 8 8 8 8 7 6 2 0 1 1 2
4 4 3 2 2 2 1 1 0 0 1 0 1 2 2 3 4 3 3 3 4 4 5 7 8 7 8 9 9 10 10 9 9 9 9 9 8 7 7 2 1 2 2
4 3 2 2 2 2 2 1 1 1 1 0 1 1 1 2 3 3 3 5 4 4 6 7 8 9 10 9 11 12 13 13 13 11 9 9 10 9 9 8 8 7 2
4 4 3 2 2 2 2 2 2 2 1 1 1 1 2 2 3 3 4 4 5 5 5 6 9 11 11 12 12 12 13 13 13 14 12 11 10 10 10 10 10 10 8
8 5 3 2 2 1 1 2 1 1 1 1 1 2 1 1 1 2 3 4 5 5 5 7 9 11 12 12 11 13 13 13 14 13 14 12 11 11 11 11 10 10 9
12 10 5 4 2 2 1 3 6 5 5 2 1 2 1 1 1 2 2 3 4 5 6 7 8 8 11 13 12 10 14 13 16 14 13 13 12 11 12 12 12 11 11
10 11 10 6 4 2 2 3 3 2 3 2 1 1 2 1 1 1 2 2 4 4 5 6 7 8 8 12 11 11 11 12 13 12 15 14 13 13 12 12 12 12 12
10 10 10 8 6 3 2 2 2 3 2 4 5 3 2 2 1 1 1 2 2 4 4 5 7 7 8 9 11 13 11 13 13 14 11 14 16 13 13 12 12 12 13
10 10 9 8 6 4 3 3 3 3 4 6 7 6 5 3 2 2 3 2 2 3 4 5 6 7 7 7 9 8 10 12 11 13 14 11 15 15 13 13 13 13 12

GFSSE_con_lsi_084.txt.gz
Lid_Strength_Index
0 -1 -2 -2 -2 -2 -1 -1 -1 -2 -2 -2 -2 -2 -2 -2 -2 -2 -3 -2 -2 -2 -2 -2 -2 -2 -2 -2 -2 -2 -2 -2 -2 -2 -2 -2 -2 -2 -2 -2 -2 -1 -2
-1 -1 -2 -2 -2 -2 -2 -1 -2 -2 -2 -2 -2 -2 -2 -2 -2 -3 -2 -3 -2 -2 -2 -2 -2 -2 -2 -2 -2 -2 -2 -2 -2 -2 -2 -2 -2 -2 -2 -2 -2 -2 -2
-1 -1 -1 -2 -2 -2 -2 -2 -2 -1 -2 -2 -2 -2 -2 -2 -2 -2 -2 -2 -2 -2 -2 -2 -2 -2 -2 -2 -2 -2 -2 -2 -2 -2 -2 -2 -1 -2 -2 -2 -2 -2 -2
-1 -1 -1 -1 -2 -2 -2 -2 -2 -1 -2 -2 -2 -2 -1 -2 -2 -2 -2 -2 -2 -2 -2 -2 -2 -2 -2 -2 -2 -2 -2 -2 -2 -2 -1 -1 -1 -2 -2 -2 -2 -2 -2
-1 -1 -1 -1 -2 -2 -2 -2 -2 -1 -2 -2 -2 -2 -1 -2 -2 -2 -3 -2 -2 -2 -2 -2 -2 -2 -2 -2 -2 -2 -2 -2 -3 -2 -2 -2 -2 -2 -2 -2 -2 -2 -2
-1 -1 -1 -1 -2 -2 -2 -2 -2 -1 -2 -2 -2 -2 -2 -1 -2 -2 -2 -2 -2 -2 -2 -2 -2 -2 -2 -2 -2 -2 -2 -2 -2 -2 -2 -2 -2 -2 -2 -2 -2 -2 -2
-1 -1 -1 -1 -2 -2 -2 -2 -2 -2 -2 -2 -2 -2 -2 -2 -2 -2 -3 -2 -2 -2 -2 -2 -2 -2 -2 -2 -2 -2 -2 -3 -2 -2 -2 -1 -2 -2 -2 -2 -2 -2 -2
-1 -1 -1 -0 -1 -2 -2 -2 -2 -2 -2 -2 -2 -2 -2 -2 -2 -2 -2 -2 -1 -2 -2 -2 -2 -2 -2 -2 -2 -2 -2 -2 -1 -2 -2 -1 -2 -2 -2 -2 -1 -1 -1
-1 -1 -1 -1 -1 -0 -1 -1 -2 -2 -2 -2 -2 -2 -2 -2 -2 -2 -3 -2 -2 -2 -2 -2 -2 -2 -2 -2 -2 -2 -2 -2 -2 -1 -1 -1 -2 -2 -2 -1 -1 -1 -1
-1 -1 -1 -1 -1 -2 -2 -0 -0 -1 -1 -2 -2 -2 -1 -2 -2 -2 -2 -3 -2 -2 -2 -2 -2 -2 -2 -2 -2 -2 -1 -1 -1 -2 -1 -1 -2 -2 -1 -1 -1 -1 -1
0 -0 -1 -1 -1 -1 -1 -0 0 -0 -0 -0 -1 -0 -1 -2 -2 -1 -1 -2 -3 -3 -2 -2 -2 -1 -1 -1 -2 -1 -1 -1 -1 -1 -1 -2 -1 -1 -1 -0 0 -0 0
1 0 -0 -1 -1 -1 -1 -2 -2 -2 -2 -2 -2 -2 -2 -2 -2 -1 -0 -1 -2 -2 -2 -2 -2 -1 -1 -2 -2 -1 -2 -1 -1 -1 -1 -2 -1 -0 -0 0 1 0 1
1 0 -0 -0 -1 -1 -1 -1 -1 -2 -2 -2 -2 -2 -2 -2 -2 -2 -2 -2 -2 -1 -1 -1 -1 -2 -1 -2 -2 -2 -1 -1 -1 -1 -0 -1 -1 0 1 0 1 1 1
1 0 -0 -0 -0 -1 -1 -1 -1 -1 -1 -1 -2 -2 -1 -1 -1 -1 -1 -1 -2 -1 -2 -2 -1 -1 -1 -1 -1 -1 -1 -1 -1 -1 -1 -0 -1 -0 0 1 1 1 1
1 1 -0 -1 -0 -1 0 -1 -1 -1 -1 -1 -2 -2 -1 -1 -1 -1 -1 -1 -1 -1 -1 -1 -1 -1 -1 -1 -1 -1 -1 -1 -1 -0 -1 2 -0 -0 -0 -0 0 1 1
1 1 -0 -0 -0 -0 -0 -1 -1 -1 -1 -1 -1 -1 -1 -0 -0 -0 -1 -1 -1 -0 -0 -1 -1 -1 -1 -0 -0 -1 -1 -1 -1 -0 -0 0 0 -1 -0 -0 -0 -0 0
1 0 0 0 0 0 0 -0 -1 -1 -1 -1 -1 -1 -0 -0 0 0 -0 -0 -0 -0 0 0 -0 -0 0 0 0 0 0 0 -0 -0 -0 -0 -0 0 -1 -0 -0 -0 -0
1 1 0 -0 0 0 0 -0 -0 -1 -1 -1 -0 -1 -0 0 0 1 1 1 1 1 1 1 1 2 2 2 2 2 3 2 2 1 1 0 -0 0 0 -1 -1 -1 -0
1 1 1 0 1 -0 0 0 0 0 -0 -1 -0 1 0 0 0 0 1 1 2 2 2 2 3 3 3 3 4 4 4 4 3 3 2 2 1 1 0 1 -0 -0 -1
1 0 0 0 0 1 0 1 0 0 0 -1 -1 0 1 1 1 1 1 2 2 2 2 3 4 4 4 3 4 5 4 4 4 4 3 3 3 3 3 2 1 0 1
1 1 1 1 0 0 2 2 1 1 0 0 -0 -0 0 1 2 2 2 1 2 3 3 4 4 5 6 5 5 4 4 4 5 5 3 4 3 4 4 4 2 1 0
5 2 1 1 0 0 0 2 1 1 0 -0 -0 0 -0 1 1 2 3 3 3 3 3 3 4 5 5 5 6 6 7 5 5 5 4 4 4 4 4 4 3 2 2
6 6 3 1 0 0 -0 1 0 1 1 1 0 0 -0 -0 1 1 2 2 2 3 4 4 5 5 6 7 7 7 10 10 4 3 5 5 6 5 4 4 5 4 4
5 4 6 5 2 0 -0 0 1 2 2 1 1 0 -0 -1 -0 0 1 2 2 2 3 3 4 4 5 7 10 9 6 8 8 9 9 9 7 6 5 6 5 5 6
5 4 3 2 2 1 -0 0 1 1 1 0 0 0 0 -0 -1 0 0 1 1 2 2 2 3 4 5 5 7 8 10 8 11 11 9 7 8 8 6 8 7 6 7
5 5 4 4 4 1 0 0 1 1 1 1 1 1 1 0 -0 -0 -0 0 1 1 2 2 3 3 4 4 5 6 8 9 9 10 10 9 7 5 9 10 9 8 6

GFSSE_con_lsi_087.txt.gz
Lid_Strength_Index
0 -1 -1 -2 -1 -1 -1 -1 -1 -2 -2 -2 -2 -2 -2 -2 -2 -3 -2 -2 -2 -2 -2 -2 -2 -2 -2 -2 -2 -2 -2 -2 -2 -2 -2 -2 -2 -2 -2 -2 -2 -1 -2
-1 -1 -1 -2 -2 -1 -1 -1 -1 -2 -2 -2 -2 -2 -2 -2 -2 -2 -2 -3 -2 -2 -2 -2 -2 -2 -2 -2 -2 -2 -2 -2 -2 -2 -2 -2 -2 -2 -2 -2 -2 -2 -2
-0 -1 -1 -2 -2 -1 -1 -1 -1 -2 -2 -2 -2 -2 -2 -2 -2 -2 -2 -3 -2 -1 -2 -2 -2 -2 -2 -2 -2 -2 -2 -2 -2 -2 -2 -1 -1 -2 -2 -2 -2 -2 -2
-1 -1 -1 -1 -2 -1 -1 -2 -1 -2 -2 -2 -2 -2 -2 -2 -2 -2 -2 -2 -2 -2 -2 -2 -2 -2 -2 -2 -2 -2 -2 -2 -3 -2 -1 -1 -1 -2 -2 -2 -2 -2 -2
-1 -1 -1 -1 -2 -1 -1 -1 -1 -1 -2 -2 -2 -2 -2 -2 -2 -2 -2 -2 -2 -2 -2 -2 -2 -2 -2 -2 -2 -2 -2 -3 -3 -2 -1 -1 -1 -2 -2 -2 -2 -2 -2
-1 -1 -1 -1 -2 -1 -1 -1 -1 -1 -2 -2 -2 -1 -1 -2 -2 -2 -2 -2 -2 -2 -2 -2 -2 -2 -2 -2 -2 -2 -2 -3 -3 -1 -1 -2 -1 -2 -2 -2 -2 -2 -2
-0 -1 -1 -1 -2 -2 -2 -1 -1 -2 -2 -2 -1 -1 -2 -2 -2 -2 -2 -2 -2 -2 -2 -2 -2 -2 -2 -2 -2 -2 -2 -3 -1 -1 -1 -1 -1 -2 -2 -2 -2 -2 -2
-0 -1 -1 -0 -1 -2 -2 -2 -1 -2 -2 -2 -2 -2 -2 -2 -2 -2 -2 -1 -2 -2 -2 -2 -2 -2 -2 -2 -2 -2 -2 -2 -1 -1 -1 -1 -2 -2 -2 -2 -1 -2 -1
-1 -1 -1 -1 -1 -1 -1 -1 -1 -2 -2 -2 -2 -2 -2 -2 -2 -2 -3 -2 -2 -2 -2 -2 -2 -2 -2 -2 -2 -2 -2 -2 -1 -1 -1 -1 -2 -2 -2 -1 -1 -1 -1
-0 -0 -1 -1 -1 -1 -1 -0 -1 -1 -1 -2 -2 -1 -1 -2 -2 -2 -2 -2 -2 -2 -2 -2 -2 -1 -2 -2 -2 -2 -1 -1 -1 -1 -1 -1 -2 -2 -1 -1 -1 -1 -1
0 -0 -1 -1 -1 -1 -1 -0 0 -0 -1 -1 -1 -0 -0 -1 -1 -1 -1 -2 -2 -3 -2 -2 -1 -1 -1 -2 -1 -1 -1 -1 -1 -0 -0 -1 -1 -1 -1 -0 0 0 0
1 1 -0 -1 -1 -1 -1 -1 -1 -1 -1 -1 -1 -1 -1 -1 -1 -1 -0 -1 -2 -2 -2 -2 -2 -1 -1 -1 -1 -0 -1 -1 -0 -0 0 -1 -1 -0 -0 0 1 1 1
1 0 -0 -0 -1 -1 -1 -1 -1 -1 -1 -1 -1 -1 -1 -1 -1 -1 -1 -1 -2 -0 -1 -1 -1 -1 -1 -1 -1 -1 -1 -1 -0 -0 0 -1 -1 -0 0 0 1 1 1
1 1 -0 -0 -0 -1 -1 -1 -1 -1 -1 -1 -1 -1 -1 -1 -1 -1 -1 -1 -2 -1 -1 -1 -1 -1 -1 -1 -1 -1 -1 -1 -0 -0 -0 -0 -1 -0 -0 0 0 0 1
1 1 0 -0 -0 -1 -0 -1 -1 -1 -1 -1 -1 -1 -1 -1 -1 -1 -1 -1 -1 -1 -1 -1 -1 -1 -1 -1 -1 -1 -1 -1 -1 -1 -1 1 -1 -1 -1 -1 -1 -0 0
1 1 0 -0 -1 -0 -0 -0 -0 -1 -1 -1 -1 -1 -1 -1 -1 -1 -1 -1 -1 -1 -1 -0 -1 -1 -1 -1 -1 -1 -1 -1 -1 -1 -1 -1 -0 -1 -1 -1 -1 -1 -1
1 0 0 0 -0 0 -0 -0 -0 -1 -0 -1 -1 -1 -1 -1 -0 -0 -1 -1 -1 -1 -1 -1 -1 -1 -1 -1 -1 -1 -1 -1 -1 -1 -1 -1 -0 1 -1 -1 -1 -1 -1
1 1 0 0 -0 -0 -0 -0 -0 -1 -1 -1 -1 -1 -1 -1 -1 -0 0 0 -1 -1 -0 0 0 0 -0 0 0 0 0 0 -0 -0 -0 -0 -1 -0 0 -1 -2 -1 -1
1 1 1 0 0 0 -0 -0 -0 -1 -1 -1 -1 -0 -1 -0 -1 -0 -0 -0 0 1 1 1 1 1 2 2 2 2 1 2 2 2 1 1 1 0 -0 -0 0 -0 -2
1 0 0 0 0 1 -0 -0 -0 -0 -0 0 0 -0 -0 -0 -0 0 -0 -0 1 1 1 2 3 3 3 3 4 4 3 2 2 2 2 2 2 2 1 1 0 1 1
1 1 1 1 0 0 1 1 1 1 0 0 0 -1 -1 0 1 1 2 2 1 2 2 3 3 3 4 4 4 4 4 3 3 3 3 3 3 2 3 2 2 1 1
5 2 1 1 0 0 0 0 0 0 0 -0 -0 -0 -1 1 2 1 1 2 2 2 3 3 4 5 5 5 6 7 7 5 4 4 4 4 4 3 3 4 4 3 2
5 4 2 1 0 0 0 0 0 1 1 1 0 0 -0 -1 0 1 1 1 1 2 3 3 3 4 5 5 5 7 10 10 6 3 4 4 4 5 3 3 4 4 3
4 5 5 2 0 0 -0 1 1 2 2 1 1 0 -0 -0 -0 0 1 1 1 1 2 2 2 3 4 5 9 7 6 7 7 8 7 6 6 5 5 5 4 4 4
3 2 3 3 2 1 0 0 1 1 1 1 1 1 0 -0 -0 -0 -0 0 1 1 1 2 2 3 3 4 6 6 8 7 7 9 8 6 5 5 5 5 4 4 4
4 4 3 2 1 0 0 0 1 1 1 1 1 1 1 1 1 0 0 0 0 0 1 1 1 2 3 3 3 4 6 6 9 9 9 8 7 5 5 5 5 5 5

GFSSE_con_lsi_093.txt.gz
Lid_Strength_Index
1 -0 -2 -2 -2 -2 -1 -2 -2 -2 -2 -2 -2 -2 -2 -2 -2 -2 -2 -2 -2 -2 -2 -2 -2 -2 -2 -2 -2 -2 -2 -2 -2 -2 -2 -2 -2 -2 -2 -2 -2 -1 -2
-0 -1 -1 -2 -2 -1 -2 -2 -2 -2 -2 -2 -2 -2 -2 -2 -2 -2 -2 -3 -3 -2 -2 -2 -2 -2 -2 -2 -2 -2 -2 -2 -2 -2 -2 -2 -2 -2 -2 -2 -2 -1 -2
-0 -1 -1 -1 -2 -1 -2 -2 -2 -2 -2 -2 -3 -2 -2 -2 -2 -2 -2 -3 -2 -2 -2 -2 -2 -2 -2 -2 -2 -3 -2 -3 -3 -3 -2 -0 -0 -2 -2 -2 -2 -2 -2
-0 -1 -1 -1 -2 -2 -2 -2 -2 -2 -2 -2 -2 -2 -2 -2 -2 -2 -2 -2 -2 -2 -2 -2 -2 -2 -2 -3 -3 -3 -3 -3 -3 -3 -0 -0 -1 -2 -2 -2 -2 -2 -2
-0 -1 -1 -1 -2 -1 -2 -2 -2 -2 -2 -2 -2 -2 -2 -2 -2 -2 -2 -2 -2 -2 -2 -2 -2 -2 -2 -2 -2 -2 -2 -3 -3 -2 -0 -1 -1 -2 -2 -2 -2 -2 -2
-0 -1 -1 -1 -2 -1 -2 -2 -2 -2 -2 -2 -2 -1 -2 -2 -2 -2 -2 -2 -2 -2 -2 -2 -2 -2 -2 -2 -2 -2 -2 -2 -2 -0 -1 -2 -1 -2 -2 -2 -2 -2 -2
-0 -0 -1 -1 -2 -2 -2 -2 -2 -2 -2 -2 -2 -2 -2 -2 -2 -2 -2 -2 -2 -2 -2 -2 -2 -2 -2 -2 -2 -2 -2 -2 0 0 0 -1 -0 -2 -2 -2 -2 -2 -2
-0 -0 -1 -0 -1 -1 -2 -2 -2 -2 -2 -2 -2 -2 -2 -2 -2 -2 -2 -2 -2 -2 -2 -2 -2 -2 -2 -2 -2 -2 -2 -1 0 1 0 0 -2 -1 -1 -1 -1 -1 -1
-0 -0 -0 -0 -0 -0 -0 -1 -2 -2 -2 -2 -2 -2 -2 -3 -2 -1 -2 -2 -2 -2 -2 -2 -2 -2 -2 -2 -2 -2 -2 -1 1 1 -0 0 -2 -1 -1 -1 -1 -0 -1
0 -0 0 0 -0 -0 0 0 -1 -1 -2 -2 -2 -1 -1 -2 -2 -1 -1 -2 -3 -2 -2 -2 -2 -2 -2 -2 -1 -1 -1 -1 2 1 1 0 -2 -1 -0 -0 0 0 0
1 0 0 0 0 -0 -0 1 0 -0 -1 -1 -1 -0 0 -0 -0 -0 -1 -2 -3 -2 -2 -2 -2 -2 -2 -1 -1 -1 -0 1 2 1 1 -1 -1 -1 -0 0 0 0 1
2 1 1 1 0 -0 -1 0 0 -0 -0 -0 -0 0 -0 0 0 -0 1 -1 -2 -2 -2 -2 -2 -1 -1 1 1 0 1 1 2 2 1 -2 -1 -1 -0 -0 1 0 1
2 1 0 1 1 1 0 0 0 0 1 1 0 1 1 1 1 0 1 1 1 1 1 0 0 1 1 0 1 1 1 1 2 2 1 -1 -1 -1 -1 -1 -0 0 -0
2 2 2 0 1 1 1 1 1 1 1 1 1 1 1 2 1 1 1 1 1 1 2 1 1 1 1 1 1 1 1 1 1 2 2 -0 -2 -1 -2 -2 -2 -1 -1
2 1 1 0 1 0 0 0 0 0 1 1 1 1 1 1 1 1 1 1 2 2 1 2 2 1 1 1 1 1 1 1 1 1 2 2 -1 -2 -2 -2 -2 -2 -2
2 2 1 1 1 1 1 0 1 1 1 -0 1 1 1 1 2 1 2 2 2 2 2 2 2 2 2 1 1 1 1 1 1 1 1 2 0 -1 -2 -2 -2 -2 -2
2 1 1 1 1 1 1 0 0 1 0 0 1 0 1 1 2 2 2 2 2 2 2 2 2 2 2 2 2 2 2 2 1 1 1 2 1 0 -1 -2 -2 -2 -3
3 2 1 1 1 1 1 0 -0 -0 0 -0 -0 0 0 0 1 2 2 2 2 2 3 3 3 3 3 2 3 3 3 3 3 3 3 3 2 2 2 -0 -1 -1 -2
3 3 2 1 2 2 1 -0 -0 -0 0 -0 -0 0 0 0 0 1 2 2 2 3 3 4 4 3 3 4 3 3 3 4 4 4 4 3 3 3 3 2 1 1 -0
3 2 2 1 2 2 2 -0 -0 0 -0 -0 -0 1 0 0 0 1 1 1 1 2 4 3 3 4 4 5 5 5 4 5 5 4 4 3 3 3 3 3 2 3 2
7 3 2 2 2 2 2 1 1 1 1 1 1 -0 0 0 0 1 1 1 1 3 3 3 3 5 5 5 5 5 6 4 4 4 3 4 4 3 4 3 3 2 2
11 10 5 2 2 2 2 1 0 1 1 0 0 0 0 1 1 1 1 2 2 2 2 3 4 4 4 4 5 6 7 6 5 4 4 4 4 4 4 4 3 3 3
10 11 9 5 2 2 2 1 1 1 1 1 1 0 0 0 0 0 1 1 2 2 2 2 3 4 4 4 4 4 7 7 6 4 3 4 4 5 4 4 4 3 3
6 8 8 7 3 2 1 1 1 2 3 1 1 0 0 0 0 1 1 1 2 2 2 2 2 2 3 4 5 4 3 5 5 6 5 4 4 4 5 4 4 4 2
6 8 7 4 5 4 1 1 1 2 1 1 2 1 1 1 2 2 1 1 1 1 1 1 1 2 2 2 4 4 6 5 5 7 7 5 5 4 4 4 3 3 3
8 7 6 5 5 5 4 3 3 3 2 3 4 4 5 4 5 5 5 5 4 3 2 1 1 2 2 2 2 2 4 4 4 6 6 5 5 4 4 3 4 4 3

GFSSE_con_lsi_096.txt.gz
Lid_Strength_Index
1 -0 -1 -2 -1 -1 -2 -2 -2 -2 -2 -2 -2 -2 -2 -2 -2 -2 -2 -2 -2 -2 -2 -2 -2 -2 -2 -2 -2 -2 -2 -2 -2 -2 -2 -2 -2 -2 -2 -2 -3 -1 -2
-0 -0 -1 -1 -2 -1 -2 -2 -2 -2 -2 -2 -2 -2 -2 -2 -2 -2 -2 -2 -2 -2 -2 -2 -2 -2 -2 -2 -2 -2 -2 -2 -2 -2 -2 -2 -2 -2 -2 -2 -2 -1 -2
-0 -0 -1 -1 -2 -1 -2 -2 -2 -2 -3 -2 -2 -2 -2 -2 -2 -2 -2 -2 -2 -2 -2 -2 -2 -2 -2 -2 -2 -2 -2 -2 -2 -2 -2 -0 -0 -2 -2 -2 -2 -2 -2
-0 -1 -1 -1 -1 -1 -2 -2 -2 -2 -2 -2 -2 -2 -2 -2 -2 -2 -2 -2 -3 -2 -2 -2 -2 -2 -2 -2 -2 -2 -2 -2 -3 -3 -0 -1 -1 -2 -2 -2 -2 -2 -2
-0 -0 -1 -1 -2 -2 -2 -2 -2 -2 -2 -2 -2 -2 -2 -2 -2 -2 -2 -2 -2 -2 -2 -2 -2 -2 -2 -2 -2 -2 -2 -2 -3 -1 0 -0 -0 -1 -2 -2 -2 -2 -2
-0 -0 -1 -1 -2 -2 -2 -2 -2 -2 -2 -3 -2 -2 -2 -2 -1 -2 -2 -2 -2 -2 -2 -2 -2 -2 -2 -2 -2 -2 -2 -2 -1 0 0 -1 -1 -2 -2 -2 -2 -2 -2
0 -0 -0 -1 -1 -2 -2 -2 -2 -2 -2 -2 -2 -2 -2 -2 -2 -2 -2 -2 -2 -2 -2 -2 -2 -2 -2 -2 -2 -2 -2 -2 0 1 0 -1 -1 -2 -2 -1 -2 -2 -2
-0 -0 -0 0 -0 -1 -1 -2 -2 -2 -2 -2 -2 -2 -2 -2 -1 -2 -2 -2 -2 -2 -2 -2 -2 -2 -2 -2 -2 -2 -2 -1 0 1 1 1 -2 -2 -2 -1 -1 -1 -1
-0 -0 0 0 0 0 -0 -1 -1 -2 -2 -2 -2 -2 -2 -2 -2 -2 -2 -2 -2 -2 -2 -2 -2 -2 -2 -2 -2 -2 -1 -1 2 1 0 1 -2 -1 -1 -1 -0 -0 -1
0 0 0 0 0 1 0 0 -1 -1 -2 -2 -2 -2 -2 -1 -0 -1 -0 -2 -2 -2 -2 -2 -2 -2 -2 -2 -2 -1 -1 -1 2 1 1 1 -2 -1 -0 -0 0 0 0
1 0 0 0 1 0 0 1 0 -0 -1 -1 -1 -0 -0 0 1 0 -1 -2 -2 -2 -2 -2 -1 -2 -1 -1 -1 -1 0 2 2 2 2 -2 -1 -1 -0 0 0 0 0
2 1 0 1 0 1 -0 0 0 -0 0 -0 -0 0 0 1 0 0 1 -1 -2 -2 -2 -1 -1 -2 -1 1 2 1 1 2 2 2 2 -2 -1 -1 -1 -0 -0 0 -0
2 1 0 0 0 0 0 0 0 0 0 0 1 1 1 1 1 1 1 1 1 1 1 0 1 1 1 1 1 2 1 1 2 2 1 -1 -2 -1 -1 -1 -1 -1 -1
2 1 1 1 1 1 0 0 0 1 1 1 1 1 2 2 2 2 1 2 2 2 2 2 1 1 1 1 1 1 1 2 2 2 2 0 -1 -2 -2 -2 -2 -2 -2
2 2 1 0 1 1 1 1 1 1 1 1 1 1 1 2 2 2 2 2 2 2 2 2 2 2 1 1 1 1 1 1 1 2 2 2 0 -1 -2 -2 -2 -2 -2
2 2 1 1 0 0 0 1 0 -0 0 0 1 2 2 1 2 2 2 2 2 2 2 2 2 2 2 2 2 1 1 1 1 2 1 2 1 -1 -2 -2 -2 -2 -2
2 1 1 1 1 1 1 0 0 1 1 0 -0 0 2 2 2 2 2 2 2 2 3 3 3 3 3 3 3 2 2 2 2 2 2 2 2 1 1 -1 -1 -2 -2
2 2 1 1 1 2 2 1 0 1 0 0 0 1 1 1 1 2 2 2 2 3 3 3 4 4 3 3 3 2 2 3 4 3 4 3 3 3 2 0 -1 -1 -2
2 2 2 2 2 2 2 1 -0 0 1 -0 0 0 0 1 1 2 2 3 3 3 3 3 3 3 4 4 3 5 4 4 4 4 4 3 3 3 2 1 1 0 -1
3 2 2 2 2 2 2 1 -0 0 0 -0 -0 -0 -0 -0 0 1 1 2 2 2 3 3 3 4 4 5 5 4 4 5 4 4 4 3 3 4 3 3 3 3 1
4 4 2 2 2 2 2 2 1 2 1 0 -0 -0 -0 0 0 1 1 1 1 2 3 3 3 4 4 4 5 4 5 4 4 4 4 4 4 3 4 4 4 3 3
9 5 3 2 2 2 2 2 2 1 0 0 0 0 0 0 1 1 1 2 2 2 2 2 3 4 4 4 4 5 7 4 4 4 4 4 4 4 4 4 4 3 3
12 11 6 3 2 2 2 2 1 1 1 1 1 0 0 0 0 1 0 1 1 2 2 2 2 3 3 3 3 4 6 6 4 3 3 4 4 4 4 4 4 4 3
9 11 11 5 3 2 1 1 1 2 3 1 1 1 1 1 2 1 1 1 2 2 2 2 2 2 2 3 3 4 3 4 6 7 5 5 4 5 5 4 4 4 4
7 9 10 6 2 2 2 1 1 2 1 2 2 2 4 5 5 4 4 3 3 3 2 2 3 3 2 2 3 3 5 5 6 6 8 6 5 4 4 4 4 3 3
8 7 7 5 6 4 3 1 2 3 2 3 4 5 6 6 7 7 7 7 6 6 6 6 6 6 6 6 6 6 6 6 6 6 7 8 8 7 7 6 5 4 4

GFSSE_con_lsi_102.txt.gz
Lid_Strength_Index
2 0 -1 -2 -2 -2 -2 -2 -2 -2 -2 -2 -2 -2 -2 -2 -2 -2 -2 -2 -2 -2 -2 -2 -2 -2 -2 -2 -2 -2 -2 -2 -2 -2 -2 -2 -2 -2 -2 -2 -3 -1 -2
0 -0 -1 -2 -2 -2 -2 -2 -2 -2 -2 -2 -2 -2 -2 -2 -2 -2 -2 -2 -2 -2 -2 -2 -2 -2 -2 -2 -2 -2 -2 -2 -2 -2 -2 -2 -2 -2 -2 -2 -3 -1 -2
0 -0 -0 -1 -2 -2 -2 -2 -2 -2 -2 -2 -2 -2 -2 -2 -2 -3 -3 -3 -2 -2 -2 -2 -2 -2 -2 -2 -2 -2 -2 -2 -2 -2 -2 0 -0 -2 -2 -2 -2 -2 -2
-0 -0 -0 -1 -2 -2 -2 -2 -2 -2 -2 -2 -2 -2 -2 -2 -3 -2 -2 -2 -2 -2 -2 -2 -2 -2 -2 -2 -2 -2 -2 -2 -2 -2 1 0 -1 -2 -2 -2 -2 -2 -2
0 -0 -0 -1 -2 -2 -2 -2 -2 -2 -2 -2 -2 -2 -2 -2 -2 -2 -2 -2 -2 -2 -2 -2 -2 -2 -2 -2 -2 -2 -2 -2 -2 -0 1 -0 -1 -2 -2 -2 -1 -2 -2
0 0 -0 -1 -2 -2 -2 -2 -2 -2 -2 -2 -2 -2 -2 -2 -2 -2 -2 -2 -2 -2 -2 -2 -2 -2 -2 -2 -2 -2 -2 -2 -1 1 1 -0 -0 -2 -2 -2 -2 -2 -2
0 0 0 -1 -1 -2 -2 -2 -2 -2 -2 -2 -2 -2 -2 -2 -2 -2 -2 -2 -2 -2 -2 -2 -2 -2 -2 -2 -2 -2 -2 -1 2 2 2 1 1 -2 -2 -2 -1 -1 -2
-0 0 0 1 -0 -1 -2 -2 -2 -2 -2 -2 -2 -2 -2 -2 -2 -2 -2 -2 -2 -2 -2 -2 -2 -2 -2 -2 -2 -2 -1 -1 1 2 2 1 -2 -2 -2 -2 -1 -1 -1
0 1 1 0 0 0 -1 -1 -2 -2 -2 -2 -2 -1 -1 -2 -2 -2 -2 -2 -2 -2 -2 -2 -2 -2 -2 -2 -2 -1 -1 -1 2 2 1 1 -2 -2 -1 -1 -1 -1 -1
2 1 2 1 1 0 0 0 -0 -1 -2 -1 -1 -1 -0 -1 -1 -1 -1 -2 -2 -2 -2 -2 -2 -2 -2 -2 -2 -1 -1 0 2 2 2 1 -2 -2 -1 -1 -1 -1 -1
2 2 2 2 2 1 1 1 1 -0 -1 -1 -1 1 2 2 1 0 -0 -2 -2 -2 -2 -2 -2 -2 -1 -1 -1 -1 1 3 2 2 3 0 -2 -2 -2 -1 -1 -1 -1
2 2 3 2 2 1 -0 1 1 1 1 0 0 2 2 2 1 0 1 -0 -1 -2 -2 -2 -2 -1 0 1 2 1 2 2 3 3 3 -0 -2 -2 -2 -2 -2 -2 -2
2 2 3 3 2 1 1 1 1 1 1 1 1 1 1 1 2 2 2 2 2 2 2 2 2 2 2 2 2 2 2 2 3 2 2 -0 -1 -2 -2 -2 -2 -2 -2
2 2 2 3 2 2 1 1 1 1 1 1 1 1 2 2 2 2 2 2 2 2 3 3 2 2 2 2 2 2 2 2 2 2 2 1 -0 -2 -2 -2 -2 -2 -2
2 2 1 2 2 2 2 1 1 1 1 2 2 2 2 2 2 2 3 3 3 3 3 3 3 2 2 2 2 2 2 2 2 2 2 2 1 -1 -2 -2 -2 -2 -2
2 1 1 1 1 1 1 1 1 1 1 1 2 2 2 2 3 3 2 3 3 3 3 3 3 3 3 3 3 2 3 3 3 3 3 3 1 -0 -1 -2 -2 -2 -3
1 1 1 1 0 1 1 0 1 1 1 2 1 1 2 3 3 3 3 3 3 3 3 3 4 4 4 4 3 3 3 4 4 3 3 3 3 1 1 -1 -2 -2 -2
2 2 1 0 2 2 2 2 1 1 1 -0 -0 0 1 1 2 3 3 3 3 3 4 4 2 2 3 3 4 4 3 4 4 4 3 3 3 3 2 1 -0 -1 -1
2 2 2 2 2 2 2 2 1 0 -0 -0 -0 -0 0 0 0 1 2 2 3 3 3 3 2 2 3 3 4 4 4 4 4 3 4 4 4 3 3 2 1 1 0
3 2 2 2 2 2 2 2 1 0 -0 -0 -0 -0 0 0 0 1 1 1 2 2 3 3 3 3 3 3 3 3 3 3 4 4 4 4 4 4 4 4 4 4 2
3 3 2 2 2 2 3 2 1 1 0 0 0 0 -0 -0 0 1 1 1 1 2 2 2 2 3 3 3 4 2 3 3 5 4 4 4 4 4 4 4 4 4 4
4 3 3 2 2 2 2 3 3 1 0 0 -0 0 -0 -0 0 1 1 1 1 2 2 2 2 3 3 2 3 4 6 5 5 4 4 5 5 6 5 5 5 5 5
5 4 2 2 2 2 2 3 2 2 1 1 1 0 2 1 1 1 1 1 1 1 2 2 2 2 3 2 2 4 7 9 6 6 6 6 7 7 7 6 6 6 5
8 6 4 2 2 2 3 3 2 2 3 2 1 4 5 5 5 4 3 2 2 2 3 3 4 3 3 5 6 5 4 6 8 10 9 8 8 9 8 7 7 6 6
10 10 9 4 3 2 2 2 2 2 2 3 5 6 7 7 7 6 5 5 6 5 6 6 7 8 7 6 7 7 7 10 10 12 13 12 11 10 9 10 9 8 7
8 9 11 9 3 3 3 2 2 2 3 4 6 7 8 9 9 8 8 8 9 9 9 9 10 10 10 10 11 11 11 11 12 12 13 14 13 13 12 10 10 9 9

GFSSE_con_lsi_105.txt.gz
Lid_Strength_Index
0 -1 -2 -2 -2 -2 -2 -2 -2 -2 -2 -2 -2 -2 -2 -2 -2 -2 -3 -2 -3 -2 -2 -2 -2 -2 -2 -2 -2 -2 -2 -2 -2 -2 -2 -2 -2 -2 -2 -2 -3 -1 -2
-1 -1 -1 -2 -2 -2 -2 -2 -2 -2 -2 -2 -2 -2 -2 -2 -2 -3 -3 -3 -3 -2 -2 -2 -2 -2 -2 -2 -2 -2 -2 -2 -2 -2 -2 -2 -2 -2 -2 -2 -2 -2 -2
-0 -1 -1 -2 -2 -2 -2 -2 -2 -2 -2 -2 -2 -2 -2 -3 -3 -3 -3 -3 -3 -2 -2 -2 -2 -2 -2 -2 -2 -2 -2 -2 -2 -2 -2 -2 -2 -2 -2 -2 -3 -2 -2
-1 -1 -1 -1 -2 -2 -2 -2 -2 -2 -2 -2 -2 -2 -3 -3 -2 -2 -2 -3 -2 -2 -2 -2 -2 -2 -2 -2 -2 -2 -2 -2 -2 -2 -1 -1 -1 -2 -3 -2 -2 -2 -2
-1 -1 -1 -1 -2 -2 -2 -2 -2 -2 -3 -2 -2 -2 -2 -2 -2 -3 -3 -2 -2 -2 -2 -2 -2 -2 -2 -2 -2 -2 -2 -2 -2 -2 -1 -1 -1 -2 -3 -2 -2 -2 -2
-1 -1 -1 -1 -2 -2 -2 -2 -2 -2 -2 -2 -2 -2 -2 -2 -2 -2 -2 -2 -2 -2 -2 -2 -2 -2 -2 -2 -2 -2 -2 -2 -1 -1 -1 -1 -2 -2 -2 -2 -2 -2 -2
-0 -1 -1 -1 -2 -2 -2 -2 -2 -2 -2 -3 -2 -2 -2 -2 -2 -2 -2 -2 -2 -2 -2 -2 -2 -2 -2 -2 -2 -2 -2 -1 -1 -1 -1 -1 -2 -2 -2 -2 -2 -2 -2
-0 -1 -1 0 -1 -1 -2 -2 -2 -2 -2 -2 -2 -2 -2 -2 -2 -2 -2 -2 -2 -2 -2 -2 -2 -2 -2 -2 -2 -2 -1 -1 -0 -1 -1 -1 -2 -2 -2 -2 -1 -1 -1
-0 -1 -1 -1 -1 0 -1 -1 -2 -2 -2 -2 -2 -2 -2 -2 -2 -2 -2 -2 -2 -2 -2 -2 -2 -2 -2 -2 -2 -1 -1 -0 -0 -0 -0 -1 -2 -2 -2 -1 -1 -1 -1
-0 -0 -1 -1 -1 -1 -1 0 -0 -1 -2 -2 -1 -0 -0 -1 -1 -1 -1 -2 -2 -2 -2 -2 -2 -2 -2 -2 -2 -1 -0 0 -0 -0 -0 -1 -2 -2 -2 -2 -2 -2 -1
1 1 -1 -0 -0 -1 -1 0 0 0 0 1 0 1 0 -1 -1 -1 -1 -2 -2 -2 -2 -2 -2 -2 -1 -1 -1 -0 0 -0 -0 -0 -0 -1 -2 -2 -2 -2 -2 -2 -2
2 2 -0 0 0 -1 -0 -0 -0 -0 -1 -1 0 0 0 -1 -1 -1 -0 -0 -1 -1 -2 -2 -1 -1 -0 -1 -1 -0 -1 -1 -1 -0 -1 -1 -2 -2 -2 -2 -2 -2 -2
2 2 0 0 0 -0 -0 -0 -0 -1 -1 -1 -1 -0 -0 -0 -1 -1 -1 -0 -1 1 -0 -0 -0 -1 -1 -1 -1 -1 -1 -1 -1 -1 -1 -0 -2 -2 -2 -2 -2 -2 -2
1 1 1 1 1 -0 -1 -1 -1 -1 -1 -1 -1 -1 -1 -0 -0 -0 -0 -0 -1 -1 -0 -0 -1 -1 -1 -0 -0 -0 -1 -1 -1 -1 0 1 -0 -2 -2 -2 -2 -2 -2
2 1 1 1 1 0 -0 -1 -1 -1 -1 -1 -1 -0 -0 -0 -0 -0 0 -0 -0 -0 -0 -0 -0 -0 -0 0 -0 -0 -0 0 -0 0 0 2 1 -1 -2 -2 -2 -2 -2
1 1 1 1 1 1 0 -0 -1 -1 -1 -0 -0 -0 -0 -0 -0 -0 -0 -0 -0 -0 -0 0 0 1 1 1 1 1 1 1 1 1 0 -0 1 0 -1 -2 -2 -2 -3
1 1 0 0 1 1 0 -0 -1 -1 -1 -0 0 0 0 1 1 0 0 0 -0 -0 0 1 0 1 0 1 0 1 1 0 0 0 -0 -0 -0 1 1 -1 -1 -2 -2
2 1 0 -0 -0 0 -0 -0 -1 -1 -0 -0 -0 -1 1 1 1 1 1 1 0 1 1 1 1 1 1 1 1 0 0 0 -0 0 0 0 0 1 1 0 0 1 0
2 1 1 0 0 -0 1 1 0 0 -0 -1 -1 -1 -0 0 0 0 1 1 1 1 1 2 1 1 0 1 0 -0 -0 -0 0 1 1 1 1 1 1 2 3 3 2
2 2 1 0 0 1 1 1 1 -0 -0 -1 -1 -0 -0 0 0 0 0 0 1 1 2 2 2 2 1 0 1 1 0 0 1 1 2 2 2 2 2 4 4 3 2
2 2 2 2 1 1 1 2 1 1 0 -0 -0 -0 -0 -0 -0 0 0 0 1 1 1 1 1 1 1 0 1 1 1 2 1 2 1 2 3 4 5 5 4 3 3
2 2 2 2 1 1 1 1 0 0 0 -0 -0 -1 -0 -0 -0 -0 -0 0 1 1 1 1 1 1 2 1 2 3 4 3 2 3 3 3 5 6 7 5 5 5 5
4 3 2 2 2 1 1 2 1 1 1 1 0 0 1 0 0 1 1 1 1 1 1 1 1 1 2 2 2 3 5 6 6 4 4 6 7 8 7 6 7 6 6
4 3 2 2 2 1 1 2 1 2 2 1 1 3 4 3 3 2 2 2 2 2 2 3 2 3 2 5 4 5 4 5 8 9 6 7 9 8 8 8 7 8 9
7 5 4 2 1 1 1 1 2 2 1 3 4 5 6 6 6 6 5 4 5 5 5 5 6 5 5 6 6 7 6 7 8 10 12 11 10 9 9 8 8 9 10
8 9 7 4 2 1 1 1 1 2 4 5 6 6 7 7 8 8 8 8 7 7 7 8 8 8 8 8 9 9 9 10 10 11 12 13 13 11 9 8 10 10 10